DW0708 Weather Reports


time (UTC)temp
F
wind
direction
speed
knots
gust
knots
rain 1hr
in
rain 24hr
in
rain mn
in
humidity
%
barometer
mb
20260509224012 91 0 0.0 0.0 0.00 0.00 0.00 63 1008.2
20260509223514 92 0 0.0 0.0 0.00 0.00 0.00 60 1008.0
20260509223028 92 0 0.0 0.0 0.00 0.00 0.00 60 1008.1
20260509222511 93 0 0.0 0.0 0.00 0.00 0.00 59 1008.0
20260509222017 93 0 0.0 1.7 0.00 0.00 0.00 58 1008.0
20260509221530 93 0 0.0 1.7 0.00 0.00 0.00 57 1008.0
20260509221012 94 0 0.0 0.9 0.00 0.00 0.00 55 1007.8
20260509220511 94 0 0.0 0.9 0.00 0.00 0.00 54 1008.0
20260509220029 95 0 0.0 1.7 0.00 0.00 0.00 54 1007.9
20260509215511 95 0 0.0 1.7 0.00 0.00 0.00 53 1008.0
20260509215011 95 0 0.0 0.9 0.00 0.00 0.00 53 1007.8
20260509214536 95 0 0.0 0.9 0.00 0.00 0.00 54 1008.0
20260509214011 95 0 0.0 0.9 0.00 0.00 0.00 55 1008.0
20260509213515 94 0 0.0 1.7 0.00 0.00 0.00 56 1008.0
20260509213028 94 0 0.0 4.3 0.00 0.00 0.00 54 1008.0
20260509212512 94 103 0.0 4.3 0.00 0.00 0.00 54 1008.0
20260509212013 94 0 0.0 1.7 0.00 0.00 0.00 56 1008.0
20260509211531 94 0 0.0 5.2 0.00 0.00 0.00 54 1008.1
20260509211012 94 0 0.0 5.2 0.00 0.00 0.00 54 1008.1
20260509210514 94 0 0.0 3.5 0.00 0.00 0.00 56 1008.3
20260509210033 94 0 0.0 1.7 0.00 0.00 0.00 57 1008.2
20260509205513 93 58 0.0 6.1 0.00 0.00 0.00 58 1008.3
20260509205012 93 0 0.0 6.1 0.00 0.00 0.00 57 1008.4
20260509204537 93 0 1.7 6.1 0.00 0.00 0.00 56 1008.5
20260509204013 93 0 0.0 1.7 0.00 0.00 0.00 58 1008.5
20260509203510 92 0 0.0 2.6 0.00 0.00 0.00 59 1008.6
20260509203027 92 0 0.0 2.6 0.00 0.00 0.00 58 1008.6
20260509202513 92 0 0.0 2.6 0.00 0.00 0.00 58 1008.7
20260509202013 92 0 0.0 2.6 0.00 0.00 0.00 59 1008.8
20260509201532 92 141 0.0 2.6 0.00 0.00 0.00 59 1008.8
20260509201013 92 0 0.0 2.6 0.00 0.00 0.00 59 1008.7
20260509200515 92 0 0.0 2.6 0.00 0.00 0.00 59 1008.9
20260509200038 92 0 0.0 2.6 0.00 0.00 0.00 62 1008.9
20260509195514 91 0 0.0 3.5 0.00 0.00 0.00 60 1009.0
20260509195015 91 0 0.0 3.5 0.00 0.00 0.00 62 1009.1
20260509194537 91 0 0.0 1.7 0.00 0.00 0.00 61 1009.2
20260509194015 91 0 0.0 4.3 0.00 0.00 0.00 62 1009.1
20260509193512 91 0 0.9 4.3 0.00 0.00 0.00 61 1009.3
20260509193036 91 0 0.0 4.3 0.00 0.00 0.00 59 1009.2
20260509192513 91 0 0.0 2.6 0.00 0.00 0.00 59 1009.2
20260509192014 92 0 0.0 1.7 0.00 0.00 0.00 59 1009.2
20260509191530 92 0 0.0 4.3 0.00 0.00 0.00 60 1009.3
20260509191015 92 208 0.9 4.3 0.00 0.00 0.00 60 1009.5
20260509190513 92 0 0.0 2.6 0.00 0.00 0.00 59 1009.5
20260509190029 93 0 0.9 2.6 0.00 0.00 0.00 57 1009.5
20260509185510 92 0 0.0 0.9 0.00 0.00 0.00 61 1009.7
20260509185010 92 0 0.0 0.0 0.00 0.00 0.00 61 1009.7
20260509184533 91 0 0.0 3.5 0.00 0.00 0.00 64 1009.8
20260509184012 89 0 0.0 3.5 0.00 0.00 0.00 65 1009.7
20260509183514 89 121 0.0 2.6 0.00 0.00 0.00 65 1009.9
20260509183032 88 0 0.0 2.6 0.00 0.00 0.00 69 1009.9
20260509182513 88 0 0.0 2.6 0.00 0.00 0.00 65 1010.0
20260509182014 88 0 0.0 3.5 0.00 0.00 0.00 68 1010.0
20260509181527 88 218 0.9 3.5 0.00 0.00 0.00 68 1010.0
20260509181012 88 0 0.0 3.5 0.00 0.00 0.00 67 1010.3
20260509180515 88 0 0.0 1.7 0.00 0.00 0.00 70 1010.4
20260509180027 87 0 0.0 0.0 0.00 0.00 0.00 70 1010.2
20260509175513 87 0 0.0 1.7 0.00 0.00 0.00 70 1010.4
20260509175010 87 0 0.0 1.7 0.00 0.00 0.00 71 1010.4
20260509174527 87 0 0.0 0.9 0.00 0.00 0.00 69 1010.5
20260509174011 87 0 0.0 0.0 0.00 0.00 0.00 70 1010.5
20260509173512 86 0 0.0 0.9 0.00 0.00 0.00 69 1010.5
20260509173028 86 0 0.0 0.9 0.00 0.00 0.00 70 1010.5
20260509172510 86 0 0.0 1.7 0.00 0.00 0.00 70 1010.6
20260509172013 86 0 0.0 1.7 0.00 0.00 0.00 72 1010.6
20260509171527 85 0 0.0 2.6 0.00 0.00 0.00 73 1010.4
20260509171013 85 0 0.0 2.6 0.00 0.00 0.00 74 1010.4
20260509170512 84 215 0.0 2.6 0.00 0.00 0.00 72 1010.4
20260509170030 84 0 0.0 2.6 0.00 0.00 0.00 75 1010.3
20260509165510 83 0 0.0 2.6 0.00 0.00 0.00 75 1010.4
20260509165010 82 0 0.0 2.6 0.00 0.00 0.00 77 1010.4
20260509164530 82 0 0.9 4.3 0.00 0.00 0.00 78 1010.4
20260509164014 82 0 0.9 4.3 0.00 0.00 0.00 80 1010.3
20260509163510 81 60 0.9 4.3 0.00 0.00 0.00 81 1010.1
20260509163031 80 187 0.9 3.5 0.00 0.00 0.00 82 1010.2
20260509162515 80 158 1.7 3.5 0.00 0.00 0.00 84 1010.2
20260509162013 79 140 0.0 2.6 0.00 0.00 0.00 86 1010.4
20260509161530 79 0 0.0 1.7 0.00 0.00 0.00 86 1010.5
20260509161012 79 0 0.0 1.7 0.00 0.00 0.00 87 1010.8
20260509160514 78 0 0.0 1.7 0.00 0.00 0.00 87 1010.7
20260509160028 78 0 0.0 1.7 0.00 0.00 0.00 87 1010.6
20260509155512 78 0 0.0 0.9 0.00 0.00 0.00 88 1010.8
20260509155013 78 0 0.0 3.5 0.00 0.00 0.00 89 1010.9
20260509154533 78 0 0.0 3.5 0.00 0.00 0.00 89 1011.0
20260509154014 77 101 0.0 3.5 0.00 0.00 0.00 90 1011.0
20260509153518 77 0 0.0 4.3 0.00 0.00 0.00 91 1010.9
20260509153032 77 0 0.9 4.3 0.00 0.00 0.00 92 1010.9
20260509152513 77 0 0.0 2.6 0.00 0.00 0.00 93 1010.8
20260509152012 76 0 0.0 3.5 0.00 0.00 0.00 93 1011.0
20260509151533 76 158 0.9 3.5 0.00 0.00 0.00 93 1010.9
20260509151015 76 0 0.0 2.6 0.00 0.00 0.00 94 1011.0
20260509150510 76 242 0.0 2.6 0.00 0.00 0.00 94 1010.8
20260509150030 76 0 0.0 0.9 0.00 0.00 0.00 94 1010.7
20260509145513 75 0 0.0 1.7 0.00 0.00 0.00 94 1010.8
20260509145011 75 0 0.0 2.6 0.00 0.00 0.00 94 1010.8
20260509144529 75 0 0.0 2.6 0.00 0.00 0.00 94 1010.7
20260509144012 75 0 0.0 1.7 0.00 0.00 0.00 95 1010.6
20260509143513 75 113 0.0 1.7 0.00 0.00 0.00 95 1010.5
20260509143038 75 0 0.0 1.7 0.00 0.00 0.00 95 1010.6
20260509142514 75 0 0.0 0.9 0.00 0.00 0.00 95 1010.4
20260509142013 75 0 0.0 0.9 0.00 0.00 0.00 95 1010.3
20260509141529 75 0 0.0 0.9 0.00 0.00 0.00 95 1010.2
20260509141012 75 0 0.0 0.0 0.00 0.00 0.00 95 1010.2
20260509140513 74 0 0.0 0.0 0.00 0.00 0.00 95 1010.2
20260509140052 74 0 0.0 0.0 0.00 0.00 0.00 95 1010.4
20260509135513 74 0 0.0 0.0 0.00 0.00 0.00 95 1010.2
20260509135015 74 0 0.0 0.0 0.00 0.00 0.00 95 1010.3
20260509134530 74 0 0.0 0.0 0.00 0.00 0.00 95 1010.4
20260509134013 74 0 0.0 0.9 0.00 0.00 0.00 95 1010.7
20260509133513 74 0 0.0 3.5 0.00 0.00 0.00 95 1010.8
20260509133029 74 0 0.0 3.5 0.00 0.00 0.00 95 1010.7
20260509132514 74 0 0.0 1.7 0.00 0.00 0.00 95 1010.9
20260509132015 74 0 0.0 1.7 0.00 0.00 0.00 95 1010.7
20260509131535 74 111 0.0 1.7 0.00 0.00 0.00 95 1010.8
20260509131014 74 0 0.0 0.9 0.00 0.00 0.00 95 1010.9
20260509130509 73 0 0.0 0.9 0.00 0.00 0.00 95 1010.9
20260509130029 73 0 0.0 0.0 0.00 0.00 0.00 95 1010.6
20260509125510 73 0 0.0 0.0 0.00 0.00 0.00 95 1010.7
20260509125014 73 0 0.0 0.0 0.00 0.00 0.00 95 1010.8
20260509124535 73 0 0.0 0.0 0.00 0.00 0.00 95 1010.7
20260509124012 73 0 0.0 0.0 0.00 0.00 0.00 95 1010.7
20260509123511 73 0 0.0 0.0 0.00 0.00 0.00 95 1010.5
20260509123028 73 0 0.0 0.0 0.00 0.00 0.00 95 1010.7
20260509122512 73 0 0.0 0.0 0.00 0.00 0.00 95 1010.7
20260509122012 73 0 0.0 0.0 0.00 0.00 0.00 95 1010.7
20260509121544 73 0 0.0 0.0 0.00 0.00 0.00 95 1010.6
20260509121019 73 0 0.0 0.0 0.00 0.00 0.00 94 1010.5
20260509120511 73 0 0.0 0.0 0.00 0.00 0.00 94 1010.3
20260509120035 73 0 0.0 0.0 0.00 0.00 0.00 94 1010.2
20260509115510 73 0 0.0 0.0 0.00 0.00 0.00 94 1010.1
20260509115013 73 0 0.0 0.9 0.00 0.00 0.00 94 1010.1
20260509114529 73 0 0.0 0.9 0.00 0.00 0.00 94 1010.1
20260509114011 73 0 0.0 0.9 0.00 0.00 0.00 94 1010.2
20260509113512 73 0 0.0 0.0 0.00 0.00 0.00 94 1010.2
20260509113027 73 0 0.0 0.0 0.00 0.00 0.00 94 1010.2
20260509112512 73 0 0.0 0.9 0.00 0.00 0.00 94 1010.2
20260509112012 73 0 0.0 0.9 0.00 0.00 0.00 94 1010.2
20260509111013 73 0 0.0 0.0 0.00 0.00 0.00 94 1010.2
20260509110512 73 0 0.0 0.0 0.00 0.00 0.00 94 1010.1
20260509110032 72 0 0.0 0.0 0.00 0.00 0.00 94 1010.4
20260509105511 73 0 0.0 0.0 0.00 0.00 0.00 94 1010.6
20260509105013 72 0 0.0 0.0 0.00 0.00 0.00 94 1010.5
20260509104532 72 0 0.0 0.0 0.00 0.00 0.00 94 1010.5
20260509104012 72 0 0.0 0.0 0.00 0.00 0.00 94 1010.5
20260509103512 72 0 0.0 0.0 0.00 0.00 0.00 94 1010.4
20260509103035 72 0 0.0 0.0 0.00 0.00 0.00 94 1010.3
20260509102510 72 0 0.0 0.0 0.00 0.00 0.00 94 1010.2
20260509101532 72 0 0.0 1.7 0.00 0.00 0.00 94 1010.0
20260509101013 72 0 0.0 0.0 0.00 0.00 0.00 94 1009.9
20260509100512 72 0 0.0 0.0 0.00 0.00 0.00 94 1009.6
20260509095512 72 0 0.0 0.0 0.00 0.00 0.00 94 1009.7
20260509095012 72 0 0.0 0.9 0.00 0.00 0.00 94 1009.7
20260509094531 73 0 0.0 0.9 0.00 0.00 0.00 94 1009.6
20260509094011 73 0 0.0 0.0 0.00 0.00 0.00 94 1009.6
20260509093514 73 0 0.0 0.0 0.00 0.00 0.00 94 1009.9
20260509093031 73 0 0.0 0.0 0.00 0.00 0.00 94 1010.0
20260509092512 73 0 0.0 0.0 0.00 0.00 0.00 94 1010.0
20260509092009 73 0 0.0 0.0 0.00 0.00 0.00 94 1009.9
20260509091532 73 0 0.0 0.0 0.00 0.00 0.00 94 1009.9
20260509091010 73 0 0.0 0.0 0.00 0.00 0.00 94 1009.9
20260509090512 73 0 0.0 0.0 0.00 0.00 0.00 94 1010.0
20260509085509 73 0 0.0 0.0 0.00 0.00 0.00 94 1010.1
20260509085012 73 0 0.0 0.0 0.00 0.00 0.00 94 1010.2
20260509084536 73 0 0.0 0.0 0.00 0.00 0.00 94 1010.2
20260509084011 73 0 0.0 0.0 0.00 0.00 0.00 94 1010.4
20260509083512 73 0 0.0 0.0 0.00 0.00 0.00 94 1010.3
20260509083038 73 0 0.0 0.0 0.00 0.00 0.00 94 1010.2
20260509082511 73 0 0.0 0.0 0.00 0.00 0.00 94 1010.4
20260509082011 73 0 0.0 0.0 0.00 0.00 0.00 94 1010.3
20260509081530 73 0 0.0 0.0 0.00 0.00 0.00 94 1010.3
20260509081013 73 0 0.0 0.0 0.00 0.00 0.00 94 1010.4
20260509080511 73 0 0.0 0.9 0.00 0.00 0.00 94 1010.2
20260509080031 73 0 0.0 0.9 0.00 0.00 0.00 94 1010.0
20260509075516 73 0 0.0 0.9 0.00 0.00 0.00 94 1010.1
20260509075016 73 0 0.0 0.9 0.00 0.00 0.00 94 1010.1
20260509074530 72 0 0.0 0.9 0.00 0.00 0.00 94 1010.1
20260509074012 72 0 0.0 1.7 0.00 0.00 0.00 94 1010.0
20260509073511 72 0 0.0 1.7 0.00 0.00 0.00 94 1009.9
20260509073029 72 0 0.0 0.9 0.00 0.00 0.00 93 1009.9
20260509072510 72 0 0.0 0.0 0.00 0.00 0.00 93 1010.0
20260509072012 72 0 0.0 0.9 0.00 0.00 0.00 93 1010.1
20260509071528 72 0 0.0 1.7 0.00 0.00 0.00 93 1010.1
20260509071014 72 0 0.0 1.7 0.00 0.00 0.00 93 1010.0
20260509070512 72 0 0.0 1.7 0.00 0.00 0.00 93 1010.1
20260509070032 72 0 0.0 0.0 0.00 0.00 0.00 93 1010.1
20260509065511 72 0 0.0 0.0 0.00 0.00 0.00 93 1010.1
20260509065014 72 0 0.0 0.9 0.00 0.00 0.00 93 1010.1
20260509064528 72 0 0.0 2.6 0.00 0.00 0.00 93 1010.1
20260509064014 72 0 0.0 2.6 0.00 0.00 0.00 93 1010.2
20260509063512 72 0 0.0 3.5 0.00 0.00 0.00 93 1010.2
20260509063027 72 0 0.0 3.5 0.00 0.00 0.00 93 1010.1
20260509062513 72 0 0.0 1.7 0.00 0.00 0.00 93 1010.2
20260509062013 72 0 0.0 1.7 0.00 0.00 0.00 93 1010.2
20260509061533 72 136 0.0 1.7 0.00 0.00 0.00 93 1010.3
20260509061011 72 0 0.0 1.7 0.00 0.00 0.00 93 1010.5
20260509060515 72 0 0.0 1.7 0.00 0.00 0.00 93 1010.6
20260509060029 72 0 0.0 0.9 0.00 0.00 0.00 93 1010.6
20260509055513 72 0 0.0 0.9 0.00 0.00 0.00 93 1010.6
20260509055013 72 0 0.0 0.9 0.00 0.00 0.00 93 1010.6
20260509054528 72 0 0.0 2.6 0.00 0.00 0.00 93 1010.6
20260509054014 72 0 0.0 2.6 0.00 0.00 0.00 93 1010.7
20260509053514 72 117 0.0 0.9 0.00 0.00 0.00 93 1010.6
20260509053037 72 0 0.0 0.9 0.00 0.00 0.00 93 1010.7
20260509052512 72 0 0.0 2.6 0.00 0.00 0.00 93 1010.7
20260509052012 72 0 0.0 2.6 0.00 0.00 0.00 93 1010.7
20260509051529 72 114 0.0 2.6 0.00 0.00 0.00 93 1010.6
20260509051010 72 0 0.0 1.7 0.00 0.00 0.00 93 1010.5
20260509050512 72 0 0.0 1.7 0.00 0.00 0.00 93 1010.5
20260509050032 72 0 0.0 1.7 0.00 0.00 0.00 93 1010.5
20260509045512 72 0 0.0 1.7 0.00 0.00 0.00 93 1010.6
20260509045012 72 0 0.0 3.5 0.00 0.00 0.00 93 1010.7
20260509044529 72 0 0.0 3.5 0.00 0.00 0.00 92 1010.8
20260509044013 72 0 0.0 2.6 0.00 0.00 0.00 92 1010.8
20260509043511 72 0 0.0 1.7 0.00 0.00 0.00 92 1010.7
20260509043029 72 0 0.0 3.5 0.00 0.00 0.00 92 1010.6
20260509042510 72 0 0.0 3.5 0.00 0.00 0.00 92 1010.6
20260509042015 72 98 0.0 5.2 0.00 0.00 0.00 92 1010.6
20260509041539 72 203 0.0 5.2 0.00 0.00 0.00 92 1010.6
20260509041012 72 0 0.0 0.9 0.00 0.00 0.00 92 1010.7
20260509040514 72 0 0.0 1.7 0.00 0.00 0.00 92 1010.7
20260509040029 72 0 0.0 1.7 0.00 0.00 0.00 92 1010.5
20260509035512 72 128 0.0 1.7 0.00 0.00 0.00 92 1010.6
20260509035011 72 0 0.0 2.6 0.00 0.00 0.00 92 1010.4
20260509034529 72 0 0.0 2.6 0.00 0.00 0.00 92 1010.3
20260509034011 72 69 0.0 3.5 0.00 0.00 0.00 92 1010.3
20260509033512 72 0 0.9 3.5 0.00 0.00 0.00 92 1010.4
20260509033026 72 0 0.0 5.2 0.00 0.00 0.00 92 1010.4
20260509032513 72 0 0.0 5.2 0.00 0.00 0.00 92 1010.5
20260509032009 73 0 0.0 2.6 0.00 0.00 0.00 92 1010.3
20260509031532 73 0 0.0 2.6 0.00 0.00 0.00 92 1010.2
20260509031012 73 169 0.0 4.3 0.00 0.00 0.00 92 1010.4
20260509030512 73 125 0.0 4.3 0.00 0.00 0.00 91 1010.2
20260509030031 73 0 0.0 2.6 0.00 0.00 0.00 91 1010.3
20260509025515 73 169 0.0 1.7 0.00 0.00 0.00 91 1010.2
20260509025012 73 0 0.0 2.6 0.00 0.00 0.00 91 1010.0
20260509024530 73 0 0.0 4.3 0.00 0.00 0.00 91 1010.1
20260509024010 73 0 0.0 4.3 0.00 0.00 0.00 91 1009.9
20260509023512 73 0 0.0 2.6 0.00 0.00 0.00 91 1009.9
20260509023029 73 0 0.0 2.6 0.00 0.00 0.00 90 1010.0
20260509022513 73 0 0.0 3.5 0.00 0.00 0.00 90 1009.9
20260509022012 73 0 0.9 3.5 0.00 0.00 0.00 90 1009.9
20260509021529 73 0 0.0 3.5 0.00 0.00 0.00 90 1009.8
20260509021014 73 70 0.0 2.6 0.00 0.00 0.00 90 1009.8
20260509020512 73 0 0.0 3.5 0.00 0.00 0.00 90 1009.8
20260509020032 73 0 0.0 3.5 0.00 0.00 0.00 89 1009.8
20260509015510 73 0 0.0 3.5 0.00 0.00 0.00 89 1009.8
20260509015012 74 3 0.0 3.5 0.00 0.00 0.00 89 1009.7
20260509014527 74 101 0.0 3.5 0.00 0.00 0.00 89 1009.6
20260509014015 74 73 0.9 2.6 0.00 0.00 0.00 89 1009.8
20260509013510 74 142 0.0 3.5 0.00 0.00 0.00 88 1009.8
20260509013036 74 0 0.0 3.5 0.00 0.00 0.00 88 1009.9
20260509012510 74 0 0.0 4.3 0.00 0.00 0.00 88 1010.0
20260509012011 74 0 0.0 4.3 0.00 0.00 0.00 88 1009.7
20260509011530 74 108 0.9 3.5 0.00 0.00 0.00 87 1009.6
20260509011013 74 86 0.9 3.5 0.00 0.00 0.00 87 1009.6
20260509010511 74 0 0.0 3.5 0.00 0.00 0.00 87 1009.6
20260509010039 75 150 0.9 5.2 0.00 0.00 0.00 86 1009.3
20260509005512 75 0 0.0 5.2 0.00 0.00 0.00 86 1009.4
20260509005013 75 0 0.9 3.5 0.00 0.00 0.00 86 1009.4
20260509004530 75 98 0.9 3.5 0.00 0.00 0.00 86 1009.2
20260509004010 75 0 0.0 3.5 0.00 0.00 0.00 85 1009.2
20260509003513 75 85 0.9 4.3 0.00 0.00 0.00 85 1009.1
20260509003030 76 98 0.9 6.1 0.00 0.00 0.00 85 1009.2
20260509002510 76 123 0.9 6.1 0.00 0.00 0.00 84 1009.3
20260509002014 76 0 0.0 1.7 0.00 0.00 0.00 84 1009.5
20260509001529 76 0 0.0 2.6 0.00 0.00 0.00 84 1009.6
20260509001010 76 0 0.0 2.6 0.00 0.00 0.00 84 1009.6
20260509000510 76 0 0.0 3.5 0.00 0.00 0.00 83 1009.7
20260509000027 76 0 0.0 7.0 0.00 0.00 0.00 83 1009.7
20260508235512 76 0 0.9 7.0 0.00 0.00 0.00 83 1009.5
20260508235012 76 114 0.0 4.3 0.00 0.00 0.00 83 1009.6
20260508234528 77 75 0.0 4.3 0.00 0.00 0.00 83 1009.5
20260508234015 77 171 0.9 4.3 0.00 0.00 0.00 82 1009.6
20260508233513 77 0 0.9 4.3 0.00 0.00 0.00 82 1009.7
20260508233030 77 72 0.0 4.3 0.00 0.00 0.00 82 1009.6
20260508232510 77 0 0.0 2.6 0.00 0.00 0.00 82 1009.6
20260508232013 77 184 0.0 2.6 0.00 0.00 0.00 81 1009.6
20260508231530 78 0 0.0 4.3 0.00 0.00 0.00 81 1009.6
20260508231010 78 0 0.0 4.3 0.00 0.00 0.00 81 1009.7
20260508230512 78 103 0.0 2.6 0.00 0.00 0.00 81 1009.7
20260508230037 78 0 0.0 2.6 0.00 0.00 0.00 81 1009.7
20260508225512 78 0 0.9 5.2 0.00 0.00 0.00 80 1009.5
20260508225011 78 0 0.9 5.2 0.00 0.00 0.00 80 1009.4
20260508224537 78 34 0.9 4.3 0.00 0.00 0.00 80 1009.5